Total_Precipitation_Accumulation
0.79 0.80 0.70 0.66 0.66 0.65 0.61 0.62 0.68 0.77 0.89 0.92 0.96 0.99 0.99 1.08 1.12 1.20 1.30 1.41 1.39 1.36 1.31 1.32 1.43 1.47 1.64 1.70 1.65 1.56 1.50 1.40 1.23 1.11 0.87 0.63 0.55 0.55 0.56 0.51 0.47 0.45 0.41
0.86 0.79 0.71 0.70 0.73 0.77 0.75 0.66 0.65 0.70 0.73 0.82 0.91 0.90 0.89 0.95 1.01 1.10 1.20 1.25 1.26 1.19 1.13 1.13 1.23 1.32 1.43 1.56 1.64 1.55 1.50 1.43 1.38 1.30 1.07 0.81 0.70 0.65 0.58 0.53 0.48 0.47 0.48
0.86 0.84 0.75 0.65 0.68 0.74 0.74 0.65 0.62 0.64 0.68 0.80 0.89 0.98 0.87 0.78 0.89 0.97 1.04 1.07 1.02 0.96 0.96 0.97 1.02 1.08 1.17 1.30 1.43 1.52 1.49 1.42 1.47 1.44 1.23 0.96 0.76 0.67 0.64 0.57 0.50 0.55 0.52
0.91 0.84 0.81 0.75 0.76 0.72 0.62 0.58 0.59 0.58 0.55 0.61 0.72 0.78 0.80 0.75 0.74 0.77 0.80 0.93 0.91 0.83 0.75 0.75 0.80 0.82 0.87 1.00 1.15 1.29 1.43 1.50 1.54 1.54 1.40 1.12 0.88 0.74 0.68 0.69 0.70 0.63 0.61
0.97 0.92 0.85 0.79 0.69 0.61 0.56 0.48 0.49 0.44 0.42 0.48 0.64 0.78 0.81 0.77 0.78 0.80 0.74 0.78 0.84 0.84 0.76 0.67 0.62 0.63 0.68 0.77 0.88 1.11 1.27 1.41 1.51 1.53 1.45 1.28 1.07 0.92 0.79 0.73 0.75 0.80 0.82
0.79 0.80 0.81 0.77 0.61 0.53 0.46 0.39 0.37 0.37 0.38 0.41 0.49 0.61 0.73 0.72 0.86 0.88 0.83 0.76 0.78 0.77 0.73 0.73 0.71 0.67 0.57 0.51 0.54 0.69 0.91 1.12 1.27 1.35 1.37 1.26 1.09 0.98 0.93 0.87 0.77 0.76 0.84
0.61 0.64 0.66 0.61 0.48 0.43 0.34 0.30 0.32 0.33 0.36 0.39 0.44 0.55 0.68 0.83 0.84 0.72 0.79 0.76 0.74 0.74 0.69 0.69 0.74 0.74 0.77 0.65 0.56 0.53 0.58 0.74 0.94 1.09 1.13 1.10 1.13 1.04 0.90 0.80 0.72 0.68 0.67
0.45 0.49 0.47 0.47 0.42 0.35 0.27 0.27 0.28 0.31 0.35 0.37 0.41 0.46 0.54 0.72 0.75 0.64 0.79 0.79 0.79 0.79 0.74 0.74 0.77 0.80 0.79 0.89 0.85 0.77 0.72 0.73 0.83 0.73 0.78 1.00 1.05 1.01 0.94 0.88 0.84 0.75 0.65
0.30 0.36 0.40 0.40 0.37 0.31 0.27 0.33 0.39 0.37 0.37 0.37 0.37 0.39 0.42 0.50 0.57 0.52 0.62 0.73 0.83 0.84 0.74 0.72 0.77 0.76 0.95 1.00 0.90 0.89 0.84 0.80 0.96 0.95 0.90 0.88 0.87 0.83 0.82 0.84 0.86 0.80 0.74
0.19 0.24 0.28 0.31 0.34 0.38 0.46 0.54 0.55 0.51 0.43 0.40 0.38 0.37 0.39 0.40 0.51 0.38 0.48 0.63 0.78 0.88 0.80 0.74 0.91 0.86 0.87 0.80 0.70 0.86 0.88 0.79 0.73 0.72 0.72 0.72 0.67 0.66 0.68 0.70 0.77 0.76 0.70
0.04 0.10 0.18 0.29 0.35 0.44 0.56 0.59 0.57 0.52 0.43 0.38 0.36 0.35 0.35 0.44 0.58 0.51 0.53 0.62 0.74 0.82 0.84 0.83 0.79 0.85 0.68 0.64 0.65 0.72 0.85 0.82 0.77 0.79 0.77 0.69 0.60 0.56 0.54 0.55 0.62 0.63 0.64
0.03 0.07 0.13 0.20 0.29 0.42 0.51 0.50 0.50 0.48 0.45 0.41 0.41 0.39 0.41 0.51 0.59 0.59 0.58 0.61 0.67 0.74 0.77 0.68 0.64 0.66 0.50 0.47 0.47 0.57 0.68 0.68 0.65 0.72 0.73 0.67 0.56 0.50 0.47 0.45 0.47 0.49 0.48
0.01 0.02 0.06 0.11 0.22 0.36 0.39 0.39 0.42 0.45 0.44 0.43 0.41 0.39 0.38 0.43 0.53 0.64 0.54 0.47 0.45 0.52 0.57 0.57 0.49 0.43 0.39 0.34 0.37 0.46 0.49 0.58 0.66 0.71 0.65 0.57 0.52 0.50 0.48 0.47 0.42 0.39 0.37
0.00 0.00 0.01 0.02 0.05 0.10 0.15 0.20 0.26 0.31 0.33 0.32 0.35 0.39 0.41 0.42 0.41 0.45 0.47 0.43 0.38 0.37 0.36 0.30 0.29 0.30 0.34 0.35 0.35 0.36 0.41 0.56 0.70 0.70 0.63 0.56 0.56 0.55 0.54 0.52 0.50 0.46 0.42
0.00 0.00 0.01 0.02 0.03 0.04 0.06 0.09 0.12 0.15 0.19 0.25 0.30 0.34 0.34 0.38 0.38 0.40 0.41 0.41 0.46 0.48 0.50 0.40 0.31 0.29 0.31 0.34 0.36 0.41 0.52 0.60 0.67 0.60 0.57 0.52 0.51 0.55 0.55 0.54 0.54 0.52 0.48
0.00 0.00 0.00 0.01 0.01 0.01 0.02 0.03 0.04 0.06 0.09 0.12 0.15 0.18 0.18 0.24 0.31 0.33 0.35 0.37 0.39 0.45 0.49 0.49 0.47 0.47 0.47 0.45 0.42 0.39 0.41 0.47 0.53 0.57 0.56 0.51 0.46 0.47 0.47 0.47 0.48 0.47 0.46
0.00 0.00 0.00 0.01 0.01 0.02 0.03 0.05 0.04 0.03 0.02 0.03 0.05 0.09 0.11 0.11 0.14 0.20 0.26 0.31 0.33 0.37 0.41 0.43 0.44 0.44 0.43 0.40 0.37 0.33 0.30 0.31 0.37 0.45 0.52 0.55 0.53 0.51 0.48 0.44 0.40 0.38 0.36
0.00 0.00 0.01 0.05 0.07 0.04 0.04 0.08 0.11 0.12 0.09 0.04 0.02 0.04 0.05 0.05 0.04 0.06 0.09 0.14 0.17 0.20 0.26 0.30 0.30 0.29 0.28 0.28 0.25 0.22 0.20 0.22 0.24 0.26 0.33 0.42 0.52 0.60 0.60 0.53 0.48 0.44 0.40
0.00 0.01 0.02 0.06 0.07 0.08 0.11 0.13 0.12 0.12 0.11 0.07 0.04 0.02 0.02 0.02 0.02 0.02 0.03 0.06 0.07 0.07 0.10 0.12 0.13 0.13 0.15 0.15 0.14 0.14 0.14 0.16 0.18 0.19 0.21 0.23 0.30 0.40 0.50 0.55 0.56 0.59 0.56
0.00 0.00 0.01 0.03 0.05 0.06 0.08 0.10 0.08 0.07 0.07 0.05 0.04 0.03 0.03 0.03 0.03 0.02 0.02 0.03 0.04 0.04 0.04 0.05 0.06 0.06 0.07 0.08 0.07 0.07 0.07 0.09 0.11 0.12 0.13 0.15 0.18 0.21 0.29 0.37 0.41 0.43 0.46
0.00 0.00 0.00 0.01 0.03 0.03 0.03 0.03 0.04 0.04 0.03 0.02 0.02 0.01 0.02 0.05 0.05 0.04 0.03 0.03 0.03 0.04 0.03 0.04 0.04 0.05 0.05 0.07 0.11 0.13 0.09 0.07 0.08 0.10 0.11 0.11 0.11 0.13 0.16 0.21 0.26 0.29 0.33
0.00 0.00 0.01 0.02 0.04 0.03 0.02 0.02 0.03 0.04 0.03 0.02 0.02 0.01 0.01 0.04 0.05 0.05 0.04 0.03 0.04 0.03 0.03 0.04 0.04 0.05 0.06 0.06 0.10 0.16 0.17 0.15 0.11 0.10 0.10 0.12 0.12 0.12 0.14 0.16 0.18 0.20 0.22
0.00 0.00 0.01 0.02 0.03 0.01 0.01 0.03 0.03 0.03 0.03 0.02 0.02 0.02 0.03 0.04 0.04 0.03 0.03 0.04 0.05 0.06 0.06 0.05 0.05 0.06 0.06 0.07 0.09 0.10 0.10 0.13 0.16 0.15 0.13 0.13 0.15 0.16 0.17 0.17 0.18 0.19 0.20
0.00 0.00 0.01 0.02 0.02 0.02 0.03 0.03 0.03 0.02 0.02 0.02 0.02 0.03 0.04 0.05 0.04 0.03 0.03 0.04 0.05 0.05 0.06 0.05 0.04 0.04 0.05 0.07 0.08 0.09 0.10 0.11 0.09 0.09 0.09 0.10 0.11 0.12 0.15 0.17 0.18 0.20 0.22
0.00 0.00 0.01 0.01 0.01 0.02 0.02 0.03 0.04 0.02 0.02 0.02 0.02 0.02 0.03 0.04 0.05 0.04 0.03 0.03 0.03 0.03 0.03 0.03 0.03 0.05 0.08 0.09 0.09 0.12 0.18 0.17 0.12 0.10 0.09 0.10 0.11 0.13 0.16 0.20 0.24 0.27 0.29
0.00 0.00 0.01 0.01 0.01 0.01 0.02 0.04 0.04 0.04 0.03 0.02 0.03 0.03 0.04 0.04 0.04 0.03 0.03 0.02 0.02 0.02 0.02 0.03 0.03 0.05 0.08 0.09 0.09 0.11 0.15 0.14 0.13 0.12 0.09 0.08 0.10 0.14 0.19 0.22 0.24 0.28 0.34